Location: Newark
(42.6681°N, 4.0833°W)
Time: 14:46:53
(UTC+00:00)

X-37B - Visible Passes

Search period start: 27 September 2020 00:00
Search period end: 07 October 2020 00:00
Orbit: 386 x 387 km, 45.0° (Epoch: 18 September)

Date Brightness Start Highest point End Pass type
(mag) Time Alt. Az. Time Alt. Az. Time Alt. Az.
30 Sep 3.3 19:29:25 10° S 19:29:30 10° S 19:29:30 10° S visible
01 Oct 3.4 20:06:03 10° SW 20:06:26 13° SW 20:06:26 13° SW visible
02 Oct 1.7 19:07:55 10° SSW 19:10:38 26° SSE 19:10:54 26° SE visible
03 Oct 1.7 19:45:20 10° WSW 19:47:32 41° SW 19:47:32 41° SW visible
04 Oct 1.1 18:46:56 10° SW 18:49:58 44° SSE 18:51:46 21° E visible
04 Oct 3.7 20:23:25 10° W 20:24:02 15° W 20:24:02 15° W visible
05 Oct 0.5 19:24:46 10° WSW 19:27:56 77° NNW 19:28:10 71° NE visible
06 Oct 0.6 18:26:12 10° WSW 18:29:22 73° SSE 18:32:15 12° ENE visible
06 Oct 2.9 20:02:59 10° W 20:04:31 25° WNW 20:04:31 25° WNW visible
